Regional Weather Roundup
Issued by NWS Newport/Morehead, NC

Current Version | Previous Version | Graphics & Text | Print | Product List | Glossary On
Versions: 1 2 3 4 5 6 7 8 9 10 11 12 13 14 15 16 17 18 19 20 21 22 23 24 25 26 27 28 29 30 31 32 33 34 35 36 37 38 39 40 41 42 43 44 45 46 47 48 49 50
485 ASUS42 KMHX 281913 RWRMHX WEATHER ROUNDUP FOR EASTERN NORTH CAROLINA NATIONAL WEATHER SERVICE NEWPORT/MOREHEAD CITY NC 300 PM EDT WED SEP 28 2016 NOTE: "FAIR" INDICATES FEW OR NO CLOUDS BELOW 12,000 FEET WITH NO SIGNIFICANT WEATHER AND/OR OBSTRUCTIONS TO VISIBILITY NCZ015>017-031-032-045>047-102-103-282000- NORTH COAST CITY SKY/WX TMP DP RH WIND PRES REMARKS EDENTON MOSUNNY 84 69 61 SE7 29.96S ELIZABETH CITY MOSUNNY 81 70 69 SE14 29.97S KITTY HAWK PTCLDY 83 74 74 E7 29.97F MANTEO CLOUDY 77 71 81 E8 29.99R $$ NCZ045>047-081-094-103-104-282000- CENTRAL COAST CITY SKY/WX TMP DP RH WIND PRES REMARKS FRISCO MOSUNNY 82 71 69 SE8 29.99R $$ NCZ095-097-098-100-101-282000- SOUTHERN COAST CITY SKY/WX TMP DP RH WIND PRES REMARKS BEAUFORT SUNNY 83 66 56 S9 29.97F CEDAR ISLAND NOT AVBL JACKSONVILLE MOSUNNY 85 69 58 S14 29.95S PINEY ISLAND MOCLDY N/A N/A N/A SE10 29.97S WILMINGTON MOSUNNY 85 72 65 S12 29.95F $$ NCZ011>013-027>030-043-044-078>080-089-090>093-098-282000- COASTAL PLAIN CITY SKY/WX TMP DP RH WIND PRES REMARKS AHOSKIE MOSUNNY 82 72 72 S7 29.94F CLINTON MOSUNNY 87 73 62 SE3 29.94F ELIZABETHTOWN MOSUNNY 87 69 55 S7 29.93F GOLDSBORO MOSUNNY 86 72 63 S9 29.91F GREENVILLE MOSUNNY 86 70 58 S10 29.96F HAVELOCK MOSUNNY 84 70 62 S8 29.97S KENANSVILLE MOSUNNY 86 70 58 S6 29.94F KINSTON PTSUNNY 86 68 54 S9 29.95F NEW BERN PTSUNNY 84 71 65 S3 29.96F RICHLANDS PTSUNNY 84 73 69 SE7 29.95F ROCKY MOUNT PTSUNNY 84 71 65 S7 29.92F WASHINGTON MOSUNNY 83 70 65 S5 29.95S WHITEVILLE MOSUNNY 88 69 53 SE12 29.93F $$ AMZ130-135-150-152-154-156-158-170-250-252-270-ANZ085-086-088-633-658-670-282000- MARINE OBSERVATIONS STATION/POSITION TIME TEMP WIND PRES WAVE SWELL AIR SEA DIR/SP/G HT/PER HT/PER (UTC) (F) (DEG/KT/KT) (MB) (FT/S) (FT/S) CHESAPEAKE LIGHT NOT AVBL 64 E VA BEACH 1850 76 75 40/ 6/ 6 1015.2 4/ 7 3/ 7 DUCK 1842 77 77 100/ 9/ 10 1014.7 2 E DUCK 1841 77 N/A 3/ 7 2/12 OREGON INLET 1842 77 77 70/ 6/ 9 1015.3 13E OREGON INLT 1900 77 N/A 3/12 3/12 HATTERAS CG 1842 78 77 120/ 6/ 9 1015.2 DIAMOND BUOY 1850 78 84 10/ 6/ 6 1015.4 4/11 3/11 CAPE LOOKOUT 1900 79 120/ 5/ 6 1014.8 BEAUFORT LAB 1842 80 77 180/ 6/ 9 1014.4 30 SE NEW RVR IN 1808 82 84 190/ 4/ 6 1015.2 30 SE NEW RVR IN 1855 84 N/A 3/ 7 2/12 27 SE WRIGHTSVLE 1808 81 83 190/ 6/ 8 1015.3 5 SE WRIGHTSVLE 1808 81 81 190/ 8/ 12 1016.2 225 S CAPE HAT 1850 81 83 210/ 16/ 17 1014.9 4/11 2/11 41 SE CHARLESTON 1850 82 83 210/ 6/ 8 1014.2 2/11 2/11 $$

USA.gov is the U.S. government's official web portal to all federal, state and local government web resources and services.